{"data":{"norad_id":52290,"intl_designator":"2022-041AF","name":"STARLINK-3772","alt_names":[],"object_type":"PAYLOAD","status":"ACTIVE","operator":null,"country":"US","launch_date":"2022-04-21","launch_site_code":"AFETR","launch_vehicle":null,"mission":null,"orbit_class":"UNKNOWN","rcs_meters":null,"size_class":null,"mass_kg":null,"dimensions":null,"purposes":["comms"],"wikipedia_slug":null,"has_3d_model":false,"image_url":null,"decayed_at":null,"tle_current":{"epoch":"2026-09-20T03:01:58.463040Z","epoch_age_seconds":91838,"freshness":"FRESH","line1":"1 52290U 22041AF  26263.12637110  .00000409  00000+0  23246-4 0  9990","line2":"2 52290  53.1595 293.2270 0001257  92.4594 267.6552 15.34387375244033","mean_motion":15.34387375,"eccentricity":0.0001257,"inclination_deg":53.1595,"raan_deg":293.227,"arg_perigee_deg":92.4594,"mean_anomaly_deg":267.6552,"bstar":2.3246e-5,"rev_number":24403,"period_min":93.848530264399,"perigee_km":461.88086628998,"apogee_km":463.60066296001,"semimajor_km":6840.877764625,"source":"CELESTRAK","updated_at":"2026-09-20T09:00:40.016315Z"}}}